SKYSAT-C8 (42990 NORAD) Tracking and Keplerian Element Data

This shows tracking and keplerian element data for the satellite.

Feedback or suggestion? Click here.




ElementValue
Catalog42990
NameSKYSAT-C8
Epoch Orbit13450
Epoch Day93.83484154
Epoch Year2020
RAAN209.3391
Inclination97.2249
Eccentricity0.000244
Argument of Perigee10.9068
Mean Anonmoly349.2229
Mean Motion15.38029326
Decay Rate1.574E-05
L11 42990U 17068D 20093.83484154 .00001574 00000-0 44195-4 0 9991
L22 42990 97.2249 209.3391 0002440 10.9068 349.2229 15.38029326134503

Live tracking and technical data element details for SKYSAT-C8 (NORAD 42990). SKYSAT-C8 can be tracked NOW for your location showing map with azimuth and elevation plus other details from your city location.

Track the satellite on the map from your city or location and see movement details for azimuth, elevation, latitude, longitude, range, height, and movement on the map or in text.







IsCatalogInMostPopularTable: catalog: 42990, numindb: 435
Update: records affected: 1



GetName: 42990 SKYSAT-C8

Hit Count: updated at: Thu, 09 Apr 2020 16:46:28 GMT